Weather History for FABL - December, 2012

Change the Weather History Date:

Sunday, December 30, 2012

  Actual Average Record
Temperature  
Mean Temperature 76 °F -  
Max Temperature 95 °F 83 °F 95 °F (2012)
Min Temperature 57 °F 56 °F 46 °F (2008)
Cooling Degree Days 11    
Growing Degree Days 26 (Base 50)    
Moisture  
Dew Point 56 °F    
Average Humidity 49    
Maximum Humidity 82    
Minimum Humidity 15    
Precipitation  
Precipitation 0.00 in 0.11 in - ()
Sea Level Pressure  
Sea Level Pressure 30.05 in    
Wind  
Wind Speed 3 mph ()    
Max Wind Speed 16 mph    
Max Gust Speed -    
Visibility 11.3 miles    
Events      
Averages and records for this station are not official NWS values.
T = Trace of Precipitation, MM = Missing Value Source: Averaged Metar Reports

Daily Weather History Graph

Daily Weather History Graph

Search for Another Location

Airport or City:

Trip Planner

Search our weather history database for the weather conditions in past years. The results will help you decide how hot, cold, wet, or windy it might be!

Date:

Astronomy

Dec. 30, 2012 Rise Set
Actual Time 5:18 AM SAST 7:16 PM SAST
Civil Twilight 4:50 AM SAST 7:43 PM SAST
Nautical Twilight 4:18 AM SAST 8:16 PM SAST
Astronomical Twilight 3:43 AM SAST 8:51 PM SAST
Moon 8:35 PM SAST (12/30) 7:00 AM SAST (12/30)
Length of Visible Light 14h 52m
Length of Day
13h 58m
Waning Gibbous, 96% of the Moon is Illuminated
Dec 30
Waning Gibbous
Jan 5
Last Quarter
Jan 11
New
Jan 19
First Quarter
Jan 27
Full

Hourly Weather History & Observations

Time (SAST) Temp. Heat Index Dew Point Humidity Pressure Visibility Wind Dir Wind Speed Gust Speed Precip Events Conditions
12:00 AM 62.6 °F - 55.4 °F 77% 30.09 in - SSE 2.3 mph - N/A   Unknown
1:00 AM 62.6 °F - 55.4 °F 77% 30.09 in - Calm Calm - N/A   Unknown
2:00 AM 60.8 °F - 53.6 °F 77% 30.06 in - Calm Calm - N/A   Unknown
3:00 AM 60.8 °F - 53.6 °F 77% 30.06 in - SSW 2.3 mph - N/A   Unknown
4:00 AM 59.0 °F - 53.6 °F 82% 30.06 in - Calm Calm - N/A   Unknown
5:00 AM 58 °F - 53 °F 78%  in 19 mi West 2.3 mph - -  
5:00 AM 57.2 °F - 51.8 °F 82% 30.06 in - West 1.2 mph - N/A   Clear
6:00 AM 60.8 °F - 55.4 °F 82% 30.06 in - North 2.3 mph - N/A   Clear
6:37 AM 68.0 °F - 55.4 °F 64% 30.09 in - Variable 2.3 mph - N/A   Clear
7:00 AM 68.0 °F - 55.4 °F 64% 30.09 in - Variable 2.3 mph - N/A   Clear
7:41 AM 73.4 °F - 57.2 °F 57% 30.09 in - Variable 2.3 mph - N/A   Clear
8:00 AM 74 °F - 58 °F 47%  in 19 mi NE 2.3 mph - -  
8:00 AM 73.4 °F - 57.2 °F 57% 30.12 in - NE 2.3 mph - N/A   Clear
8:50 AM 80.6 °F 80.8 °F 57.2 °F 45% 30.09 in - NNE 4.6 mph - N/A   Clear
9:00 AM 80.6 °F 81.1 °F 59.0 °F 48% 30.09 in - NNE 4.6 mph - N/A   Clear
10:00 AM 86.0 °F 84.5 °F 55.4 °F 35% 30.09 in - NNE 9.2 mph - N/A   Clear
11:00 AM 89 °F - 54 °F 21%  in 19 mi North 9.2 mph - -  
11:00 AM 87.8 °F 85.7 °F 53.6 °F 31% 30.09 in - North 9.2 mph - N/A   Clear
12:00 PM 89.6 °F 88.9 °F 59.0 °F 36% 30.06 in 6.2 mi North 12.7 mph - N/A   Partly Cloudy
1:00 PM 91.4 °F 90.7 °F 59.0 °F 34% 30.04 in 6.2 mi NNE 11.5 mph - N/A   Partly Cloudy
2:00 PM 93 °F - 54 °F 17%  in 19 mi North 6.9 mph - -   Scattered Clouds
2:00 PM 93.2 °F 90.8 °F 53.6 °F 26% 30.06 in 6.2 mi North 6.9 mph - N/A   Partly Cloudy
3:00 PM 93.2 °F 91.9 °F 57.2 °F 30% 30.01 in 6.2 mi NNW 8.1 mph - N/A   Partly Cloudy
4:00 PM 93.2 °F 91.9 °F 57.2 °F 30% 29.98 in 6.2 mi North 5.8 mph - N/A   Partly Cloudy
5:00 PM 94 °F - 52 °F 15%  in 19 mi East 3.5 mph - -   Scattered Clouds
5:00 PM 93.2 °F - 51.8 °F 24% 29.98 in 6.2 mi East 3.5 mph - N/A   Partly Cloudy
6:00 PM 91.4 °F 89.4 °F 55.4 °F 29% 29.95 in 6.2 mi East 6.9 mph - N/A   Partly Cloudy
7:00 PM 89.6 °F 88.1 °F 57.2 °F 33% 29.95 in - East 5.8 mph - N/A   Clear
8:00 PM 82 °F - 61 °F 38%  in 19 mi East 4.6 mph - -   Scattered Clouds
8:00 PM 80.6 °F 81.1 °F 59.0 °F 48% 30.01 in - East 3.5 mph - N/A   Clear
9:00 PM 77.0 °F - 60.8 °F 57% 29.98 in 6.2 mi Variable 1.2 mph - N/A   Unknown
10:00 PM 78.8 °F - 59.0 °F 51% 30.01 in 6.2 mi NNW 16.1 mph - N/A   Unknown
11:00 PM 73 °F - 56 °F 46%  in - North 6.9 mph - -  
11:00 PM 71.6 °F - 55.4 °F 57% 30.04 in - North 5.8 mph - N/A   Unknown